This is the latest recevied weather packets stored in our database for station/object KA4YMY. If no packets are shown the sender has not sent any weather packets the latest 1 day(s).
| Time | Temp. | Humidity | Pressure | Rain* | Wind** | Luminosity | Snow |
|---|---|---|---|---|---|---|---|
| 1778004916 | 26.67° C | 44% | 1015.6 hPa | 0 mm | 0.89 m/s, 158° | - | - |
| 1778004316 | 26.11° C | 41% | 1015.7 hPa | 0 mm | 0.89 m/s, 158° | - | - |
| 1778003716 | 26.11° C | 39% | 1015.7 hPa | 0 mm | 0.89 m/s, 113° | - | - |
| 1778003116 | 26.11° C | 42% | 1016 hPa | 0 mm | 1.79 m/s, 158° | - | - |
| 1778002516 | 26.11° C | 41% | 1015.8 hPa | 0 mm | 0.89 m/s, 180° | - | - |
| 1778001916 | 25.56° C | 42% | 1015.8 hPa | 0 mm | 1.34 m/s, 158° | - | - |
| 1778001316 | 25° C | 45% | 1015.8 hPa | 0 mm | 1.34 m/s, 158° | - | - |
| 1778000716 | 25° C | 43% | 1015.8 hPa | 0 mm | 2.24 m/s, 158° | - | - |
| 1778000116 | 25° C | 49% | 1015.9 hPa | 0 mm | 0.45 m/s, 158° | - | - |
| 1777999516 | 24.44° C | 49% | 1015.9 hPa | 0 mm | 1.34 m/s, 158° | - | - |
| 1777998916 | 24.44° C | 51% | 1016 hPa | 0 mm | 1.34 m/s, 135° | - | - |
| 1777998325 | 24.44° C | 50% | 1016.3 hPa | 0 mm | 1.34 m/s, 158° | - | - |
| 1777997716 | 24.44° C | 49% | 1016.5 hPa | 0 mm | 1.79 m/s, 158° | - | - |
| 1777997116 | 24.44° C | 53% | 1016.6 hPa | 0 mm | 0.45 m/s, 158° | - | - |
| 1777996516 | 23.89° C | 53% | 1016.7 hPa | 0 mm | 1.34 m/s, 158° | - | - |
| 1777995916 | 23.89° C | 56% | 1016.8 hPa | 0 mm | 1.34 m/s, 158° | - | - |
| 1777995316 | 23.89° C | 56% | 1016.7 hPa | 0 mm | 0.45 m/s, 135° | - | - |
| 1777994716 | 23.33° C | 56% | 1016.7 hPa | 0 mm | 1.34 m/s, 158° | - | - |
| 1777994116 | 22.22° C | 57% | 1016.8 hPa | 0 mm | 1.79 m/s, 158° | - | - |
| 1777993516 | 22.22° C | 58% | 1016.8 hPa | 0 mm | 1.79 m/s, 158° | - | - |
| 1777992916 | 22.22° C | 61% | 1016.8 hPa | 0 mm | 0.45 m/s, 158° | - | - |
| 1777992316 | 22.22° C | 61% | 1016.7 hPa | 0 mm | 1.34 m/s, 158° | - | - |
| 1777991716 | 22.22° C | 62% | 1016.7 hPa | 0 mm | 0.45 m/s, 158° | - | - |
| 1777991115 | 21.67° C | 64% | 1016.7 hPa | 0 mm | 0.89 m/s, 158° | - | - |
| 1777990515 | 21.11° C | 62% | 1016.7 hPa | 0 mm | 0.89 m/s, 135° | - | - |
* Rain latest hour (hover to see other rain measurements)
** Current wind speed in m/s (hover to see current wind gust speed)